User: anonymous   Login
Location: Peebles
(55.6412°N, 3.1714°W)
Time: 16:40:32
(UTC+01:00)
Language:

DMSP 7529 - Orbit

View from above orbital plane
View from above orbital plane
View from above satellite
View from above satellite

Ground track
Ground track

The orbit data is extracted from the following two-line orbital elements,

1  6787U 73054A   22184.16258022  .00000106  00000-0  56014-4 0  9997
2  6787  98.7476  31.4647 0025728 335.0238  24.9698 14.32087840545069
Epoch (UTC): 03 July 2022 03:54:06
Eccentricity: 0.0025728
inclination: 98.7476°
perigee height: 766 km
apogee height: 803 km
right ascension of ascending node: 31.4647°
argument of perigee: 335.0238°
revolutions per day: 14.32087840
mean anomaly at epoch: 24.9698°
orbit number at epoch: 54506

The dashed part of the orbit path shows where the satellite is in the earth's shadow,  

DLR